Theta_e
307 308 309 310 311 310 310 310 309 309 308 308 308 308 307 307 307 307 307 307 308 308 308 308 308 308 307 308 309 308 309 308 309 311 312 315 317 315 314 319 321 320 314 317 331 339 341 343 343 343 343 344 343 342 345 345 347 348 350 348 344 352 355 352 354 351 352 357 354 355 358 354 353 356 356 354 355 353 353 354 352 353 354 353 352 352 353 353
307 308 308 309 310 311 311 310 310 309 309 309 308 308 308 307 307 307 307 307 307 308 308 308 308 308 308 308 308 309 309 308 313 320 322 318 314 312 313 316 320 321 314 320 336 340 341 343 342 343 341 343 341 339 344 345 346 347 349 346 342 354 356 352 354 353 353 357 355 356 358 356 354 355 355 353 355 353 352 352 353 353 354 353 351 352 353 353
306 307 307 308 309 311 311 311 310 310 310 309 309 308 308 308 307 307 307 307 307 308 308 308 308 308 309 309 309 309 308 313 321 326 328 323 317 315 314 315 320 321 314 325 338 337 340 341 340 341 339 340 339 338 343 344 344 345 346 345 349 354 353 350 352 352 354 357 357 355 356 356 355 355 355 353 354 352 351 352 354 354 354 353 351 351 352 353
306 307 307 307 308 310 311 312 311 310 310 310 309 309 308 308 307 307 307 307 307 308 308 308 308 308 309 309 310 309 309 318 327 328 325 323 321 321 318 315 320 320 316 327 337 335 338 338 339 339 337 338 338 338 342 342 341 342 342 342 350 351 347 351 351 351 353 352 355 353 355 355 354 353 353 355 353 351 353 353 353 354 353 352 351 351 351 352
306 307 307 307 307 308 311 312 311 310 309 309 309 309 309 308 307 307 307 307 307 308 308 308 308 308 308 309 310 309 313 322 326 325 322 320 321 323 322 318 320 319 317 328 335 334 336 337 339 337 335 336 335 338 338 340 341 340 341 341 346 346 348 353 351 351 351 349 354 352 353 355 355 354 353 356 355 353 354 354 354 354 352 351 351 351 350 351
305 306 307 308 308 308 309 311 311 310 309 309 309 308 308 307 307 308 308 308 308 308 309 308 308 309 309 309 308 309 318 325 321 322 321 319 320 322 322 320 320 318 319 330 333 333 335 336 338 336 335 335 333 336 334 337 339 338 340 343 343 343 350 354 351 350 349 350 352 351 352 354 354 354 355 355 355 353 352 353 354 353 351 351 351 352 349 349
305 306 307 308 308 308 309 310 312 311 309 309 308 308 308 307 308 308 308 308 308 308 308 308 309 310 310 309 309 315 323 324 319 320 318 317 319 321 322 321 320 317 323 331 331 332 334 335 337 334 333 334 332 334 334 335 335 336 336 341 344 343 348 352 352 351 349 350 350 351 351 352 353 352 354 355 355 353 353 354 354 352 351 351 351 352 350 348
305 306 307 308 309 309 309 310 311 311 310 309 309 308 307 308 308 308 308 308 308 308 308 309 309 309 310 310 315 324 326 322 320 319 317 316 317 321 322 321 320 319 326 332 330 332 334 335 336 332 332 331 331 331 333 333 332 334 334 338 344 344 348 349 351 351 351 350 348 349 349 351 353 351 355 356 353 353 354 354 352 353 351 351 352 351 350 349
305 305 307 308 310 311 310 310 311 311 311 310 309 308 308 309 308 309 308 308 308 308 308 309 309 311 310 311 318 326 322 320 319 318 320 320 318 321 322 321 319 321 329 333 328 330 332 335 335 331 331 330 329 329 331 332 331 334 334 336 339 342 345 347 351 351 350 350 348 348 346 351 353 351 355 355 353 354 354 354 352 353 352 352 351 350 351 349
305 305 306 308 310 311 311 310 311 311 311 310 309 309 309 308 309 308 308 308 308 308 310 311 312 313 312 315 323 325 320 319 318 318 322 322 319 321 323 322 321 326 333 333 329 330 331 334 333 331 330 329 328 326 328 330 331 336 335 336 336 337 342 346 349 350 350 349 348 347 345 350 351 350 354 353 354 354 353 354 353 352 352 352 351 350 350 349
305 305 306 308 311 311 311 311 311 311 310 309 309 309 309 309 308 308 308 308 308 310 313 314 314 314 314 319 327 325 320 319 319 320 322 325 323 322 327 326 325 330 335 334 331 329 330 331 331 330 328 327 326 325 327 329 331 334 334 335 336 334 337 342 346 349 349 347 349 347 346 350 349 350 354 351 351 354 353 353 352 350 351 353 352 351 350 349
304 305 305 308 311 311 311 311 310 310 309 309 309 309 309 308 308 308 308 308 310 313 314 314 314 314 320 325 326 320 318 319 320 319 321 328 328 327 332 329 327 331 333 334 331 327 328 328 328 328 327 325 324 325 326 327 329 330 331 332 335 335 334 336 341 346 347 347 349 346 346 349 348 349 352 350 351 355 354 353 351 351 352 353 352 351 350 350
304 304 305 307 310 311 310 310 310 310 309 309 309 309 308 308 308 308 308 310 312 314 314 315 314 315 324 328 321 315 316 318 318 317 319 326 329 330 333 332 328 330 331 331 330 327 326 327 327 327 326 324 323 325 325 326 326 327 329 329 332 332 331 335 337 342 346 347 348 345 343 347 348 348 351 352 352 355 355 353 351 352 353 352 353 352 351 351
304 304 305 307 310 311 310 310 310 309 309 309 309 309 308 308 308 308 310 313 314 315 315 316 315 319 326 325 317 315 314 317 319 319 318 320 325 327 331 332 329 329 330 330 330 328 326 326 326 325 326 324 324 325 325 326 325 326 327 327 327 325 327 333 336 339 343 346 348 344 340 343 347 346 349 353 353 354 354 353 352 353 352 352 353 352 351 352
304 304 304 306 308 310 311 310 310 309 309 310 310 309 309 308 309 310 311 313 314 314 315 316 316 323 330 323 317 316 314 318 319 318 317 317 325 327 328 330 329 328 330 330 330 329 327 326 326 326 327 325 324 325 325 325 324 326 322 321 324 322 325 333 335 338 342 345 347 344 340 344 348 347 348 353 353 353 354 354 354 353 352 353 353 353 352 352
304 304 304 305 307 310 310 310 310 310 310 310 310 309 309 309 310 311 312 314 315 314 315 321 321 325 330 321 316 317 315 318 317 316 316 317 322 326 328 329 328 328 328 329 329 328 327 327 327 327 327 326 323 323 324 322 321 326 322 318 322 323 325 330 332 338 341 343 345 343 343 347 349 347 348 351 352 351 354 354 354 354 354 353 353 353 352 352
304 304 304 304 306 309 310 310 310 310 311 311 309 310 310 309 310 312 313 313 315 313 315 320 322 324 325 317 315 317 316 316 316 316 317 316 318 325 329 328 328 327 326 328 328 328 328 327 327 326 325 326 323 323 320 317 316 321 323 320 323 325 325 327 332 337 340 343 344 344 345 347 347 346 347 350 350 350 353 353 353 355 355 354 353 354 353 352
304 304 304 304 305 308 310 310 310 311 311 311 311 312 312 310 309 312 314 315 316 318 317 317 320 322 321 315 316 316 314 316 316 316 318 317 317 324 327 326 327 325 325 328 328 327 326 326 325 324 324 323 324 323 317 316 318 318 321 320 322 326 326 326 331 337 340 341 343 345 345 346 345 345 347 348 351 350 353 353 352 355 355 354 355 354 353 353
304 304 304 304 304 306 309 310 310 310 311 312 313 314 315 314 313 313 316 320 321 322 321 318 319 320 316 315 315 315 315 316 316 317 318 317 318 324 326 325 326 325 325 326 327 327 325 324 323 322 323 322 324 325 320 321 324 322 323 322 321 322 325 329 331 335 340 340 342 345 345 346 344 345 348 348 350 351 352 354 353 354 354 354 355 353 353 353
304 304 304 304 304 304 308 310 310 310 311 312 314 316 317 318 320 318 317 319 319 317 317 316 315 316 315 315 314 314 315 316 317 318 319 319 322 326 325 324 325 325 325 326 325 326 324 322 322 321 323 323 324 325 324 324 325 325 325 324 324 322 324 330 332 333 339 337 339 343 344 347 346 344 349 350 349 348 352 354 354 354 354 354 353 352 353 354
304 304 304 304 304 304 307 310 311 310 311 313 314 315 316 315 317 318 315 315 315 313 315 314 314 314 314 313 314 315 316 316 318 319 319 322 326 327 325 324 325 324 325 326 325 326 325 322 322 323 324 324 325 324 324 324 324 325 325 323 323 322 324 330 330 333 336 337 337 341 343 346 347 346 347 349 348 348 352 354 354 355 353 353 353 352 353 354
303 304 304 304 304 304 306 310 311 311 312 314 315 314 314 312 313 314 314 316 315 314 314 313 313 314 313 312 313 313 315 317 318 318 319 322 326 326 325 324 323 324 324 325 325 324 324 322 323 324 325 324 325 324 324 324 324 324 324 322 321 323 327 329 331 332 334 335 336 341 341 341 345 347 346 346 347 349 350 353 354 356 356 355 355 353 353 353
303 304 304 304 304 304 306 309 311 313 313 315 315 314 313 312 312 313 313 316 316 315 314 314 314 314 313 313 313 313 316 318 318 319 318 319 324 326 327 325 323 324 324 324 324 322 322 323 324 326 325 326 325 325 324 324 324 324 323 320 319 324 326 323 328 332 332 335 335 338 339 339 343 344 345 347 348 349 348 348 352 355 356 355 354 353 352 353
303 303 304 304 304 305 307 309 312 315 314 315 314 314 313 312 313 313 314 317 316 315 315 313 314 314 313 313 312 313 316 317 317 318 317 318 321 323 325 326 324 324 324 324 324 322 322 325 325 325 325 326 324 325 325 323 322 323 323 321 320 323 323 323 328 331 331 331 334 336 331 334 340 342 345 347 347 348 348 349 350 354 356 354 354 355 354 355
303 303 304 304 304 306 310 313 314 315 315 315 314 313 313 313 313 313 315 318 316 316 314 313 313 313 313 312 312 314 315 315 316 316 317 318 319 320 321 324 325 324 325 323 323 324 323 325 325 323 323 325 323 324 324 323 321 321 323 324 323 323 323 324 327 329 326 326 331 333 324 326 337 341 342 343 345 346 346 348 349 352 354 352 353 354 354 355
304 304 304 305 305 307 313 316 315 314 315 316 314 313 313 313 313 313 316 317 315 315 315 313 313 312 313 313 313 314 314 315 316 315 316 317 317 319 319 322 325 325 326 325 324 323 324 325 325 323 323 323 323 323 323 324 320 318 321 325 324 323 322 323 326 325 321 322 331 332 324 323 330 336 341 342 344 346 345 346 348 351 352 351 352 353 354 354
306 306 305 306 306 307 313 316 315 315 316 315 313 313 313 312 311 313 316 316 314 314 314 314 313 312 313 313 313 314 314 314 315 315 316 316 317 319 318 320 322 323 325 326 323 323 323 324 323 323 323 322 322 321 323 325 320 318 322 325 323 323 322 322 324 324 323 325 329 332 328 323 323 331 341 341 341 343 345 346 349 352 352 352 350 351 353 355
307 307 306 307 307 309 311 312 313 316 316 314 313 313 313 312 311 315 317 315 313 314 314 313 313 312 313 313 313 314 314 314 315 315 316 315 316 318 318 318 320 321 324 324 321 324 324 323 322 323 322 322 322 323 323 323 321 321 324 324 323 323 322 322 322 322 325 325 321 325 328 323 321 329 338 341 338 341 344 344 347 350 352 351 349 350 354 354
308 308 308 308 309 311 311 312 314 316 314 313 313 313 313 312 313 317 317 315 315 313 313 313 312 313 313 314 314 314 315 314 315 315 316 315 316 318 318 319 320 320 322 323 322 325 326 324 324 323 322 323 322 323 324 323 322 323 323 323 325 325 324 324 321 319 321 321 318 320 324 322 321 326 332 336 335 338 342 343 343 347 350 349 349 350 351 352
310 309 310 309 311 314 313 314 316 315 313 313 313 312 313 314 317 318 316 316 316 313 313 313 313 313 314 314 315 314 314 315 315 315 316 316 316 316 318 318 319 319 320 321 321 324 325 326 325 323 324 324 323 324 324 324 324 323 324 324 323 324 326 325 322 319 317 316 317 320 322 322 320 324 329 333 335 338 341 341 342 344 347 350 352 351 349 351
311 311 311 310 312 313 313 316 316 313 313 312 312 313 314 315 317 317 315 316 314 313 314 313 313 314 314 314 314 314 314 314 315 315 316 317 317 317 318 318 318 317 317 318 319 321 323 324 325 325 325 325 324 325 325 325 324 323 324 323 321 321 324 323 321 320 315 314 317 320 323 321 318 323 332 335 336 338 340 341 342 344 345 350 353 350 349 351
312 312 312 311 311 312 313 315 314 312 312 312 313 315 316 317 317 315 315 314 313 313 313 313 313 313 313 313 313 313 314 314 314 315 315 317 318 319 318 318 319 316 315 315 316 319 320 322 324 325 326 327 325 324 325 325 325 324 323 321 318 317 320 320 318 318 316 315 318 321 321 319 319 325 333 336 336 337 339 339 342 344 343 348 351 351 349 350
312 312 312 311 312 313 313 314 312 311 312 312 314 315 316 317 317 316 315 313 313 313 313 312 312 313 313 313 313 313 313 313 314 314 315 315 317 318 317 317 318 317 316 317 316 316 317 320 322 323 324 325 325 324 322 322 324 324 321 319 317 317 318 320 319 318 318 317 318 321 321 318 319 326 332 333 334 335 340 339 340 343 342 345 350 350 348 348
312 312 312 312 313 314 314 313 312 312 312 313 315 316 317 317 317 316 315 313 312 313 313 312 313 313 313 313 313 313 313 313 313 313 314 315 315 317 318 317 316 317 317 317 317 316 315 317 320 320 323 325 325 324 323 324 324 325 324 323 319 317 319 319 319 318 318 318 319 320 320 317 318 324 330 330 333 335 337 338 338 340 341 344 346 348 347 348
313 313 312 314 316 314 314 313 313 312 313 315 316 316 317 316 316 315 314 313 312 313 312 312 312 313 313 313 313 312 312 312 313 313 314 315 315 317 318 316 315 316 316 315 317 317 314 316 321 322 322 324 324 325 325 324 323 324 326 322 319 320 321 320 319 320 320 319 320 320 320 322 324 329 332 329 331 333 334 338 338 338 339 341 345 346 346 348
314 316 314 316 316 314 313 313 312 313 313 316 317 317 316 315 314 314 313 313 312 312 313 312 312 313 313 313 313 313 312 312 313 313 313 314 315 315 316 315 314 314 315 315 317 318 315 316 321 323 322 323 324 325 325 323 322 324 323 320 321 325 324 319 318 320 320 319 321 320 321 324 327 329 332 330 329 331 332 335 337 338 338 339 342 345 346 347
314 316 317 316 315 313 312 313 313 313 315 317 317 317 316 314 314 313 313 313 312 312 312 312 312 312 313 313 313 313 313 312 312 312 312 313 313 314 315 315 313 313 314 315 316 319 317 317 321 322 321 322 324 325 324 325 324 323 321 322 325 326 324 322 318 320 320 319 320 320 320 321 322 324 330 332 330 329 330 331 334 337 338 339 342 343 345 345
314 317 317 315 314 312 313 313 313 314 316 317 317 316 315 314 314 313 313 312 312 312 312 312 313 313 312 312 313 313 312 312 313 312 312 313 314 314 314 314 314 313 313 313 314 317 317 315 319 320 320 322 323 323 322 324 325 323 324 326 325 321 320 321 319 319 320 319 321 320 320 321 321 324 329 330 330 330 330 331 332 334 336 339 340 341 342 345
316 319 318 315 313 312 312 312 314 316 317 317 317 316 314 313 313 313 313 312 312 312 312 313 313 313 313 312 312 313 312 311 312 312 312 312 314 314 314 313 314 314 314 313 313 315 317 315 316 319 320 321 321 321 319 321 324 324 324 327 325 322 321 321 321 321 320 320 320 320 320 320 324 329 331 332 332 332 330 330 331 331 334 336 336 337 339 342
318 320 317 314 313 312 313 313 315 317 317 317 317 316 314 313 313 313 312 312 312 312 312 312 313 312 313 312 311 312 312 312 312 312 312 312 312 313 313 313 312 313 313 313 312 312 314 315 315 317 318 319 318 320 320 319 321 322 321 322 323 324 324 323 322 321 321 320 321 321 320 320 326 332 332 332 334 332 331 331 330 330 332 332 334 334 336 339
319 320 317 314 313 313 314 316 317 317 317 316 316 315 314 314 313 313 312 312 312 312 311 311 312 312 312 312 312 312 312 312 312 312 312 312 312 312 313 313 312 312 311 312 312 312 313 315 314 315 316 316 317 320 321 321 321 322 321 320 321 323 323 323 322 321 320 321 321 321 320 321 328 333 332 331 333 332 331 331 331 331 332 331 333 332 333 338
319 319 315 313 313 314 315 316 316 317 316 315 314 313 313 313 313 313 313 312 313 312 312 312 312 312 312 312 312 312 312 312 312 312 312 312 312 312 312 312 312 311 311 311 312 314 315 315 316 316 316 316 319 320 320 320 322 322 322 322 323 323 322 321 320 321 320 320 321 321 320 323 331 334 333 332 332 332 332 332 332 332 330 330 331 332 333 335
318 316 315 313 313 315 316 316 315 315 315 314 313 313 312 313 313 313 313 313 312 312 312 312 312 312 312 312 311 311 311 311 311 311 311 312 312 312 312 312 312 311 310 311 312 313 315 314 315 315 316 316 318 318 320 321 321 321 322 323 323 323 323 323 324 323 322 320 320 320 319 323 331 335 332 332 333 331 333 332 331 332 331 331 332 332 333 334
317 316 315 313 314 315 316 316 315 314 314 314 314 312 312 313 313 313 313 312 312 312 312 312 312 312 311 311 311 310 310 311 311 311 311 311 312 312 312 312 311 311 311 312 313 313 314 315 315 314 314 315 315 316 317 318 319 320 321 323 324 324 324 324 325 325 324 322 323 322 319 322 331 336 333 332 332 331 332 331 331 332 331 333 333 332 333 336
317 317 316 314 314 315 315 315 315 314 313 314 313 312 313 313 312 311 312 312 312 312 311 311 312 311 311 311 310 310 310 310 310 311 311 311 312 312 312 311 311 311 311 313 313 311 312 314 316 316 315 314 314 315 316 317 318 319 320 322 323 324 325 323 322 322 322 324 326 325 322 325 331 335 334 333 333 331 332 334 335 335 334 334 338 336 334 337
318 317 316 315 315 315 314 315 315 314 313 314 313 312 312 312 311 311 311 311 311 311 311 311 311 311 311 310 310 310 310 310 310 311 311 310 311 311 311 311 311 311 312 312 312 310 310 312 314 317 317 315 316 318 318 318 318 319 320 321 322 323 325 323 322 322 323 324 324 326 328 328 331 334 334 335 338 337 338 340 340 342 339 338 340 338 338 341
317 315 316 316 316 315 315 314 314 315 313 313 313 312 311 311 311 311 311 311 311 310 311 311 310 311 310 311 311 311 311 311 311 311 311 311 311 311 311 311 311 311 311 312 311 310 310 311 312 314 315 315 316 317 316 316 317 317 319 320 321 323 323 323 322 323 326 324 323 328 332 329 330 335 336 337 342 343 341 343 344 344 343 344 343 340 338 339
315 315 314 314 315 315 314 313 314 314 313 312 312 311 311 310 310 310 310 310 310 310 311 311 310 310 310 311 311 312 312 313 312 312 313 312 312 312 312 312 312 311 311 311 311 311 310 311 311 312 312 313 313 314 314 314 315 316 317 318 320 321 322 322 322 324 326 325 324 329 332 331 330 334 338 339 341 341 341 342 344 345 345 345 345 343 340 339
315 315 313 313 314 314 313 313 314 313 312 312 312 311 311 310 310 310 310 310 311 310 311 311 311 310 310 310 311 312 314 313 312 313 313 312 312 312 312 312 312 312 311 311 311 312 311 310 311 311 311 312 312 312 313 313 313 314 315 317 318 320 321 322 322 323 325 325 326 329 330 331 331 333 338 339 340 338 339 341 342 346 348 346 344 343 343 343
314 314 314 314 314 314 313 313 313 313 312 312 312 311 311 311 310 310 310 310 311 311 311 310 310 310 310 311 312 312 313 313 312 313 312 312 312 312 311 312 312 313 312 311 311 311 310 311 312 311 311 311 311 312 312 312 313 313 314 316 317 318 320 320 320 322 323 324 326 327 328 330 331 332 337 339 338 338 338 340 341 344 346 344 342 343 344 344
313 313 314 315 313 313 314 313 313 313 311 311 311 311 311 311 310 310 310 310 311 311 311 310 310 310 310 311 312 312 312 312 312 312 312 312 312 312 312 312 312 312 312 312 313 312 311 311 311 311 311 311 311 312 312 312 312 312 312 314 316 317 318 319 320 322 322 322 324 325 326 328 330 332 337 338 338 338 340 340 341 342 342 341 340 342 344 344
312 313 313 314 313 313 313 313 313 313 312 311 311 311 311 311 310 311 311 311 311 310 310 310 310 310 310 311 312 312 312 312 311 311 311 311 312 311 311 311 311 311 311 312 313 313 312 312 311 310 310 311 311 312 312 312 312 312 312 313 315 317 318 319 319 321 322 323 323 324 325 327 330 334 337 337 336 338 341 341 340 340 341 341 341 344 347 346
Wind_Speed
20 20 21 21 20 19 18 18 17 16 15 14 14 14 14 15 14 13 14 14 15 14 14 14 15 14 13 13 12 10 8 7 5 5 7 6 9 14 13 10 14 16 15 16 16 18 19 18 19 16 15 15 14 14 12 14 12 9 6 6 6 1 1 4 2 6 5 4 5 10 10 9 10 11 12 11 10 12 12 11 13 10 11 17 23 31 33 33
20 20 21 20 20 20 18 18 17 17 16 15 15 14 15 15 15 15 14 15 15 14 14 14 14 12 10 12 13 11 7 4 3 6 8 8 11 13 12 12 16 19 19 20 20 21 21 20 19 17 16 14 14 14 12 12 12 10 6 6 5 2 7 7 3 12 8 7 10 12 10 7 8 10 10 10 10 13 12 11 14 14 17 23 29 32 33 34
21 20 20 20 20 20 18 17 17 17 17 16 15 15 16 15 16 16 15 15 15 15 14 14 13 10 7 9 14 13 6 3 4 5 6 8 10 11 12 14 17 21 22 21 21 21 19 18 18 18 17 14 14 13 11 10 11 11 8 7 3 2 7 3 5 7 6 7 11 12 8 7 3 8 10 9 10 12 12 12 14 17 22 26 30 32 33 33
21 21 21 20 20 19 18 17 16 17 17 16 16 16 16 16 16 16 16 16 15 15 15 14 14 10 8 7 12 15 7 4 3 3 3 7 8 11 12 14 18 22 23 19 19 20 17 16 17 18 17 13 14 13 11 11 10 10 9 8 3 3 3 4 5 5 5 1 3 7 11 8 9 9 10 9 9 9 8 11 15 19 24 29 29 31 32 32
22 22 21 21 20 19 18 17 16 16 17 17 17 16 16 17 17 16 16 16 15 15 15 14 13 11 10 8 12 14 8 3 5 3 5 6 5 9 10 13 19 22 24 19 18 20 17 17 17 18 16 12 13 12 12 14 12 9 10 11 10 6 3 3 1 3 3 2 2 4 7 11 14 10 7 9 5 3 3 6 15 21 25 30 30 30 32 33
22 22 22 21 20 19 18 17 16 16 17 17 17 17 17 17 17 16 16 16 15 15 15 14 12 10 9 8 11 11 6 2 5 3 7 3 3 7 8 11 19 23 25 19 19 21 19 19 18 17 15 12 12 12 11 15 14 9 10 11 12 10 2 1 3 3 2 3 1 3 4 8 11 9 7 10 3 3 3 10 15 21 26 29 31 31 32 34
23 22 22 22 21 19 18 17 16 17 17 17 17 17 18 17 17 16 16 16 15 15 14 12 9 7 6 6 9 7 8 5 5 6 8 5 4 4 6 10 20 25 25 20 22 22 21 20 19 18 14 11 12 13 12 14 15 12 10 10 10 9 5 4 3 5 5 5 3 2 4 6 7 9 11 8 4 3 7 14 18 21 26 27 29 31 31 33
24 24 23 22 22 20 18 17 16 17 17 17 17 17 18 18 18 17 16 16 15 14 12 9 8 6 6 6 7 8 10 4 3 7 9 7 4 3 6 14 22 27 25 21 23 23 22 22 21 18 13 11 11 12 12 12 14 14 13 12 9 7 7 7 6 6 6 7 6 4 5 8 8 6 11 10 5 5 11 16 20 22 26 27 28 29 31 31
24 24 23 23 22 21 19 17 16 17 17 17 17 17 17 18 17 17 16 14 12 11 9 9 7 6 6 4 7 9 4 1 4 7 7 5 3 3 7 16 24 26 22 21 22 22 21 21 21 18 12 11 12 12 12 11 10 11 15 16 12 9 9 8 9 9 8 8 7 8 8 7 8 5 9 18 12 9 14 18 20 22 25 27 27 29 31 32
24 23 23 22 21 20 18 17 16 17 17 17 18 17 17 17 16 16 14 12 9 9 8 8 6 5 4 2 7 7 2 3 5 6 5 3 1 4 10 15 23 23 19 20 21 22 21 19 19 18 14 11 11 11 12 12 8 6 11 16 16 14 11 9 11 10 10 10 9 10 5 2 7 6 6 16 16 12 16 18 19 22 24 25 26 28 30 32
24 23 23 22 20 19 17 16 16 17 18 18 18 17 17 15 14 13 11 10 8 7 7 7 5 2 1 3 10 5 5 3 3 4 3 1 1 8 12 14 20 20 18 19 20 21 21 18 16 16 12 9 11 11 13 15 12 9 8 11 14 17 15 13 12 11 12 10 11 11 6 5 6 5 4 8 13 13 16 19 18 19 22 24 26 28 29 30
24 24 23 22 20 19 17 17 17 18 18 18 18 17 15 12 10 9 9 9 8 7 7 7 2 4 2 7 10 5 6 4 2 2 1 2 4 9 11 12 17 19 17 17 19 19 20 18 15 16 10 6 9 9 9 14 16 15 11 10 11 14 16 17 16 14 14 9 10 12 8 8 5 4 8 9 12 13 14 17 17 18 22 24 25 27 28 29
25 24 24 22 20 19 19 18 18 19 19 19 19 16 12 9 7 8 8 7 7 8 7 3 4 7 1 6 2 5 6 3 3 1 1 3 5 9 10 11 15 17 16 15 16 17 19 17 16 19 13 7 8 3 3 8 14 13 12 10 9 11 12 17 18 18 17 11 12 12 8 7 8 11 11 10 11 12 12 14 16 19 21 23 25 26 27 28
24 24 24 22 20 19 18 18 19 19 19 19 18 15 10 6 6 8 7 4 8 8 5 5 6 6 4 3 2 6 7 2 3 1 2 4 5 8 9 10 14 16 15 14 13 14 18 18 16 18 17 14 10 4 4 9 10 10 12 9 9 9 9 15 17 18 16 12 14 13 8 5 5 10 11 12 12 14 14 16 19 21 22 23 25 26 27 28
23 23 23 21 19 17 17 18 18 18 19 20 17 14 8 5 7 8 5 2 7 8 5 5 3 2 7 3 3 7 10 5 2 2 4 6 6 7 9 11 14 15 14 12 12 12 16 17 16 16 16 17 14 8 5 9 8 9 10 9 10 9 9 13 17 19 16 14 18 15 7 3 2 8 12 17 17 18 17 16 17 20 22 23 25 25 26 28
21 22 21 21 18 16 16 17 18 18 19 20 16 12 7 5 8 9 5 1 2 7 5 2 3 5 9 1 3 5 8 5 3 3 4 6 7 7 8 11 13 14 12 11 11 11 14 15 16 16 15 14 12 9 7 8 8 9 10 9 11 11 10 11 14 20 18 14 18 17 9 4 6 13 18 22 22 21 17 15 17 20 22 23 24 25 26 27
21 21 21 21 18 16 16 16 18 18 19 19 15 11 6 3 8 9 7 5 1 2 3 2 3 7 7 3 2 4 6 6 4 2 3 5 7 6 8 11 14 15 13 11 10 11 13 14 14 13 13 12 9 9 8 8 9 8 9 10 11 13 12 10 10 16 18 16 16 16 13 7 7 11 14 18 22 21 17 15 19 20 21 23 23 24 25 26
21 20 20 21 19 17 15 15 17 17 19 18 11 10 8 2 6 8 7 7 5 5 3 2 2 7 2 4 3 5 6 5 3 2 3 4 7 7 9 11 14 16 15 12 12 13 15 15 13 10 10 11 10 10 10 10 10 9 10 10 11 13 13 13 11 12 17 18 15 16 14 10 10 10 9 13 19 20 16 17 22 21 20 22 22 22 24 26
22 20 20 20 19 17 15 15 15 16 19 16 11 11 10 4 5 5 5 4 5 4 2 1 2 4 2 5 5 6 5 4 3 3 3 5 7 9 10 10 13 18 16 12 13 16 15 12 12 10 10 12 13 14 13 12 10 10 11 11 12 13 12 14 13 12 17 16 15 16 12 10 14 14 13 17 21 20 18 20 24 23 21 21 21 21 22 24
22 21 20 20 19 18 15 14 13 15 17 15 15 12 8 7 6 1 4 7 5 5 4 3 4 4 3 5 7 7 4 4 3 2 2 5 8 11 11 11 14 17 14 11 11 17 16 11 11 12 13 15 17 17 16 16 12 9 10 11 13 13 12 13 13 13 16 14 15 17 14 14 15 14 18 23 22 19 18 18 21 21 23 22 21 20 22 24
23 22 21 19 19 18 15 13 11 12 13 13 16 11 5 10 6 3 9 6 4 3 3 2 4 3 3 5 6 7 4 2 2 3 2 6 8 10 11 12 14 12 13 14 12 14 14 11 13 16 16 15 16 17 16 17 14 10 9 9 10 12 12 12 12 15 14 10 11 15 17 16 13 12 18 23 17 16 21 23 24 23 23 23 23 22 21 21
23 23 22 20 19 18 15 12 9 10 11 9 10 8 5 9 7 6 10 7 4 3 3 2 2 2 4 3 3 4 5 4 3 4 2 5 9 11 10 11 12 9 12 15 11 11 12 13 16 17 16 15 15 16 16 16 15 11 8 9 9 7 10 10 10 15 12 7 9 14 16 14 13 16 17 19 16 17 24 25 24 23 24 23 24 23 21 20
23 23 22 20 18 17 14 10 7 9 10 7 6 6 6 7 7 6 8 9 6 7 6 3 2 3 4 1 2 4 8 6 1 4 3 5 9 11 8 9 12 11 13 15 11 10 10 12 17 17 15 16 16 13 14 14 13 11 9 9 9 8 8 8 8 14 12 7 8 13 14 12 14 15 14 18 21 22 23 19 19 21 26 24 22 23 23 23
23 23 22 21 18 16 13 7 5 7 6 3 4 7 7 8 7 7 8 11 7 7 6 3 2 2 4 3 4 6 6 3 2 2 1 6 6 7 9 10 12 12 12 15 16 14 11 11 16 18 16 16 16 14 13 12 10 13 14 10 11 11 11 10 8 11 12 9 10 11 11 9 12 15 14 16 20 24 23 18 20 20 23 24 22 24 26 25
22 23 22 21 19 14 8 3 3 5 6 3 3 8 9 8 8 6 7 10 6 7 8 5 4 1 2 2 3 6 5 4 2 2 0 6 7 3 8 11 11 11 13 17 17 14 13 12 13 17 18 16 15 14 14 12 9 11 15 14 15 14 12 13 11 8 8 10 12 12 11 8 12 16 15 13 16 20 19 18 22 20 21 23 22 25 27 27
22 23 22 21 20 12 3 1 2 7 7 2 4 10 10 10 8 4 5 7 4 7 8 6 3 2 1 2 3 5 5 4 1 1 1 4 7 6 7 8 9 11 13 13 12 9 10 14 12 12 16 17 16 14 13 13 10 8 11 14 17 17 15 14 12 10 7 7 11 15 12 9 10 15 17 16 16 19 19 16 20 22 22 23 23 24 25 26
22 22 21 20 18 11 3 4 6 8 7 3 7 11 10 11 7 3 5 7 3 4 6 5 2 3 3 4 5 6 3 1 2 5 2 4 5 6 7 8 8 9 11 9 8 7 10 16 14 12 15 15 13 12 12 14 11 8 8 10 14 16 17 16 12 10 9 9 11 14 14 10 9 12 16 18 18 18 20 20 21 23 26 26 25 25 25 26
21 21 19 18 16 10 5 4 5 6 7 7 10 11 11 10 3 4 6 6 2 3 3 4 2 1 3 4 5 7 5 4 4 4 1 6 6 7 9 10 9 9 10 10 8 8 12 17 17 13 13 12 11 12 13 15 12 10 10 8 8 12 15 16 13 10 9 10 10 12 14 11 9 11 14 18 20 19 20 21 21 23 26 27 25 23 23 27
20 19 18 16 13 9 7 5 3 6 8 9 10 11 10 6 2 5 7 4 3 4 2 3 3 1 4 4 2 5 5 3 5 2 1 7 6 8 9 7 10 10 10 11 11 9 10 15 18 14 11 10 12 14 14 15 12 11 13 9 5 8 10 12 12 10 10 11 11 14 15 11 8 9 11 13 16 18 19 18 19 22 27 28 25 24 25 29
19 18 17 14 10 7 8 6 2 6 10 9 9 10 8 4 5 6 6 2 3 5 2 2 1 1 5 6 4 1 3 2 5 6 5 6 5 9 9 7 9 10 10 11 12 13 12 13 16 14 11 11 13 14 13 13 12 11 13 11 7 8 9 9 9 9 10 11 13 16 17 15 10 8 10 12 13 14 15 15 17 21 27 28 26 26 28 28
18 17 15 11 7 5 6 5 4 8 11 9 7 8 7 5 5 7 4 1 3 4 3 2 1 1 4 4 1 1 2 1 4 6 5 5 7 8 7 7 8 7 8 10 10 13 16 13 11 11 14 13 12 14 13 12 12 10 9 10 8 8 8 8 8 9 10 11 12 16 19 18 13 8 9 12 15 14 13 15 17 19 23 26 28 28 27 26
18 16 12 8 9 8 6 7 9 11 9 6 6 7 7 5 7 6 1 2 2 2 3 3 3 1 2 3 1 2 3 0 2 5 4 3 4 3 2 2 2 5 7 8 9 12 14 15 11 10 14 16 12 11 11 11 11 11 9 9 9 8 7 8 9 9 10 10 11 14 17 16 13 11 11 13 15 16 15 15 16 19 24 27 30 29 27 26
17 15 9 7 10 11 7 9 12 11 5 4 8 8 7 6 5 1 3 2 1 4 4 2 2 2 4 5 1 2 4 1 3 3 2 5 4 2 1 4 6 7 6 5 8 9 10 14 16 13 11 15 15 10 9 10 11 12 11 9 9 8 8 10 9 9 10 11 13 15 14 13 11 12 15 16 14 12 15 18 18 20 24 27 29 29 29 30
17 13 7 7 12 13 11 11 11 10 6 6 9 7 7 7 2 2 3 5 6 4 3 1 2 2 3 3 3 3 3 2 1 4 3 5 7 5 4 3 6 8 8 7 7 8 9 10 14 16 12 14 17 14 11 11 11 12 11 10 11 9 8 8 8 9 9 9 13 16 13 11 9 8 13 19 18 16 15 17 20 22 23 25 28 29 30 31
16 11 6 7 11 12 11 11 10 9 6 8 9 6 6 5 1 3 3 6 4 1 3 0 5 6 4 2 3 3 3 2 2 4 5 4 3 1 1 5 7 7 7 7 5 6 12 6 6 10 11 12 17 17 15 14 10 11 12 11 11 10 9 8 8 10 10 9 10 12 10 8 7 6 7 13 19 21 18 13 15 19 22 23 26 29 29 28
13 8 5 5 9 11 8 8 8 5 6 9 8 5 2 3 6 5 5 4 4 4 3 3 5 6 4 3 3 4 1 3 3 4 4 2 1 3 4 5 6 8 6 6 6 5 9 6 4 3 8 13 15 14 17 17 11 8 12 12 11 11 11 9 10 11 11 11 9 8 9 9 8 7 7 9 14 19 21 16 13 16 20 21 23 26 28 28
10 4 4 5 10 11 6 5 5 3 8 9 5 2 3 6 7 6 4 4 3 3 7 5 2 3 3 1 3 5 2 4 3 3 2 3 2 2 3 4 4 6 8 7 6 4 5 7 3 1 8 14 11 7 11 18 15 10 9 11 11 12 12 9 8 9 10 11 9 10 12 11 9 7 9 12 14 15 19 20 18 17 19 19 20 23 26 27
8 2 4 5 12 10 4 4 4 5 9 8 2 3 5 5 7 7 5 5 3 3 7 4 1 1 3 4 1 4 3 5 1 1 4 2 3 2 2 2 5 5 8 9 6 3 6 8 6 4 9 12 10 7 11 15 17 15 11 8 9 11 11 9 8 8 10 10 8 12 14 12 10 8 9 15 17 16 17 19 21 20 19 21 21 22 24 25
6 6 3 8 11 6 1 2 4 8 10 7 2 3 4 5 7 7 4 4 4 4 5 4 2 1 2 3 5 3 0 3 4 3 3 1 2 3 3 2 3 5 8 9 7 5 6 7 7 6 8 9 9 10 10 11 13 16 15 12 10 9 10 10 9 8 9 9 9 11 12 10 8 9 10 12 14 17 17 16 18 20 22 25 25 24 25 25
8 8 3 13 9 2 1 5 9 10 6 2 3 4 5 5 6 6 5 6 5 3 5 5 2 3 2 2 3 3 1 3 4 3 2 2 0 3 5 4 4 7 9 9 8 6 5 6 8 8 7 7 8 8 11 12 12 13 14 13 11 8 8 9 10 10 9 9 9 10 10 8 7 9 11 8 7 12 16 15 14 17 23 27 29 28 27 26
11 8 8 15 5 1 5 9 7 5 2 3 4 6 5 3 5 6 5 6 4 2 5 6 2 3 5 3 3 1 2 5 5 4 5 3 2 1 3 5 6 8 9 8 7 4 5 5 8 9 7 8 10 11 14 16 14 11 10 13 13 11 9 9 11 12 11 10 9 9 9 7 4 6 10 10 8 9 12 14 13 15 21 24 26 29 29 28
10 4 11 14 5 5 11 5 1 3 2 4 4 5 3 1 3 4 3 4 2 3 1 5 2 4 6 5 6 5 4 8 7 6 8 6 2 2 5 5 6 8 7 8 6 3 3 5 7 9 9 10 11 11 12 13 14 12 10 11 13 13 12 10 9 11 12 12 12 10 10 6 1 4 4 8 8 8 10 11 11 14 18 20 21 25 28 29
7 6 9 10 7 10 10 1 5 2 4 5 3 4 3 2 2 2 3 4 2 1 2 4 2 3 5 4 6 8 7 7 8 8 9 9 3 7 8 7 6 7 7 6 6 2 1 5 7 8 9 11 14 16 15 14 14 12 11 11 12 13 15 13 11 10 9 12 13 11 11 8 5 8 4 3 5 8 10 10 9 10 12 16 20 21 23 25
7 5 8 10 10 9 6 1 4 2 4 4 4 4 4 5 6 5 4 5 5 3 4 5 2 1 4 5 6 8 7 5 7 7 6 7 2 7 7 7 6 8 7 4 4 5 2 5 7 7 8 8 10 12 12 13 12 10 11 14 14 16 18 17 14 11 9 10 13 11 10 11 8 10 8 4 2 4 5 8 8 7 8 10 14 18 22 23
6 3 5 10 10 8 6 7 4 4 3 4 5 4 4 5 5 6 6 5 5 7 4 3 3 3 5 6 6 8 7 5 7 6 5 6 2 2 5 5 4 10 6 8 9 8 6 6 6 7 9 9 8 6 5 8 8 8 13 18 19 21 21 15 12 12 10 10 13 10 7 10 13 11 10 7 5 7 5 2 4 2 3 2 2 3 13 21
6 1 3 6 8 11 11 10 6 5 3 2 3 4 3 3 5 3 6 3 2 6 4 1 3 5 5 6 6 7 8 7 7 6 6 8 5 4 7 5 7 11 6 9 9 8 6 8 9 10 11 10 7 5 8 10 8 8 13 16 18 21 21 13 9 10 11 10 12 11 10 10 10 9 9 8 3 3 2 4 8 9 5 7 12 12 5 4
4 4 4 4 5 7 8 9 8 4 2 1 0 2 3 3 3 3 3 2 2 6 4 2 3 4 3 5 7 6 6 7 8 8 8 8 7 7 9 10 11 12 8 8 9 7 6 9 13 14 15 16 15 14 14 14 12 12 14 14 15 16 19 16 12 12 11 10 11 13 15 13 8 6 4 5 6 5 5 6 7 7 9 11 11 8 5 2
5 5 6 4 3 3 5 6 7 6 5 5 2 1 2 3 3 3 2 1 2 5 3 0 1 3 4 5 7 6 5 5 6 7 7 7 7 8 8 10 12 12 10 11 11 9 7 10 13 15 16 17 16 16 16 15 14 14 15 15 14 15 17 18 16 15 13 12 12 13 17 17 14 7 4 7 5 4 7 8 6 7 9 13 13 10 5 2
7 6 6 4 1 4 5 4 5 6 6 4 2 3 3 3 4 3 3 2 1 2 3 2 1 3 5 5 6 5 4 5 6 6 7 8 8 8 8 8 10 11 12 11 11 10 8 9 13 15 17 17 16 15 15 17 17 16 17 17 15 15 16 16 16 18 17 16 16 17 18 17 17 8 5 8 8 5 8 9 7 9 10 12 13 12 10 10
6 5 6 6 6 6 5 4 4 5 4 2 2 4 3 3 4 4 3 3 1 2 1 4 4 5 6 5 6 6 5 6 7 7 8 8 8 7 7 8 8 8 10 9 7 8 8 8 12 13 14 16 17 16 15 17 19 18 18 18 16 17 18 17 17 17 16 16 17 20 19 15 15 10 4 8 11 8 8 8 8 9 11 12 14 13 12 12
6 4 3 3 5 3 3 4 3 1 4 3 3 4 3 4 5 4 1 2 3 2 2 5 5 5 6 6 7 7 7 8 10 11 11 11 10 9 8 8 7 7 9 8 6 7 7 8 11 11 10 12 15 16 15 16 19 20 20 20 18 18 18 17 16 15 14 15 15 18 17 13 12 10 7 11 12 8 7 9 10 11 12 14 15 14 11 10
6 6 3 3 2 1 3 3 2 1 3 4 3 3 4 4 5 4 1 3 0 3 2 5 7 6 6 6 6 7 9 11 13 15 16 16 16 16 15 15 14 12 10 8 7 7 8 8 8 9 10 11 14 17 15 14 15 15 15 17 18 18 18 18 17 18 18 15 12 13 14 13 11 7 9 12 12 9 9 11 13 15 16 16 15 13 10 9
Wind_Direction
0 357 355 354 353 352 351 349 347 343 340 339 338 336 335 334 336 338 337 336 338 341 339 341 345 345 356 359 347 341 331 319 315 285 264 237 218 225 221 201 193 192 187 179 172 179 183 187 194 193 200 204 215 230 220 216 234 242 241 259 263 50 125 248 112 108 130 152 186 206 182 157 161 146 141 149 154 145 138 131 123 115 119 135 139 143 149 150
359 356 354 352 352 352 349 346 344 340 338 338 337 335 334 331 332 333 334 333 334 338 334 336 340 343 358 3 1 352 333 337 329 284 274 243 225 228 224 205 186 185 182 176 180 186 184 187 190 191 201 208 212 220 220 210 221 238 246 258 267 98 202 238 80 109 136 197 187 196 186 151 157 147 160 164 149 152 146 134 129 119 115 128 138 143 149 151
358 356 353 351 352 351 349 345 341 338 335 336 336 334 332 330 330 329 331 332 331 332 330 331 332 333 341 359 5 354 344 345 297 260 260 244 227 226 223 209 188 182 179 177 186 189 187 189 188 191 202 212 210 209 215 206 213 232 246 263 313 26 222 188 57 92 125 188 175 179 148 95 171 166 174 166 149 166 156 145 141 129 129 135 140 146 152 154
357 355 352 350 350 349 349 344 339 337 334 335 335 333 331 329 328 328 329 330 328 326 326 326 325 322 308 317 348 351 353 299 234 166 253 257 228 223 227 210 193 184 173 176 191 192 192 191 190 197 206 216 210 209 220 211 216 230 235 255 296 326 275 87 60 46 62 95 130 161 129 130 215 200 178 157 155 173 149 155 152 141 142 142 146 152 156 158
357 354 351 349 348 347 347 344 340 336 334 336 335 333 330 327 327 326 327 327 325 323 322 322 321 316 299 287 319 341 346 266 138 99 287 276 236 221 232 211 195 184 168 176 196 195 196 194 194 202 214 226 213 211 223 220 225 244 247 259 277 291 349 58 106 67 41 355 62 153 147 167 192 202 170 116 129 151 96 186 160 148 150 148 151 156 159 162
357 354 351 349 348 346 345 343 340 336 337 338 335 333 329 326 325 324 324 322 320 320 318 319 320 315 307 291 309 332 314 269 81 324 274 293 276 222 235 212 192 180 168 183 200 195 199 196 195 203 215 229 224 220 218 219 225 246 254 248 265 276 297 252 201 159 246 287 121 158 195 180 174 193 143 101 150 140 138 197 164 152 155 152 153 158 164 166
357 354 352 350 348 348 345 343 341 338 340 339 337 333 328 325 324 324 322 319 319 317 315 318 320 320 324 310 317 312 261 257 50 321 273 283 293 229 230 201 186 177 172 193 200 194 199 195 198 205 212 225 229 230 221 222 225 237 258 247 251 263 252 242 198 188 231 254 248 189 204 195 182 181 140 134 203 150 186 185 157 152 153 154 156 160 166 167
356 354 352 351 349 350 348 346 343 341 342 341 338 332 328 327 325 324 320 319 317 313 315 319 317 320 317 314 310 273 242 239 27 336 298 280 276 242 207 181 180 177 179 200 198 194 200 197 201 205 213 226 229 233 226 229 229 230 250 259 258 258 252 242 218 217 234 238 249 256 224 196 194 187 139 153 189 173 187 162 145 151 152 155 158 161 167 168
354 353 353 351 350 350 350 349 346 343 343 342 338 334 331 328 325 323 319 319 315 311 317 314 315 314 303 306 286 263 221 75 329 333 323 297 273 217 179 173 178 178 187 202 199 198 200 201 205 208 222 231 231 235 228 229 231 228 238 249 254 253 252 244 234 232 238 238 239 241 231 190 189 205 147 157 176 185 161 140 144 151 152 158 160 164 168 170
354 352 352 352 351 350 350 349 347 345 343 342 340 337 334 329 326 321 317 319 316 316 314 311 319 309 306 306 272 262 93 29 322 340 329 308 301 164 158 175 179 181 196 202 201 202 202 206 206 214 236 247 246 241 229 228 234 237 237 245 250 253 252 241 237 232 235 236 228 231 218 184 207 198 149 157 166 171 151 143 149 152 158 162 163 167 168 172
353 352 352 354 353 351 351 349 347 346 345 345 343 341 337 332 327 319 319 324 325 327 317 318 317 291 59 277 268 292 30 341 321 347 331 11 156 157 157 182 186 189 202 200 203 205 206 212 208 217 234 250 255 246 235 232 241 253 253 255 248 247 249 242 240 229 231 228 221 234 192 180 230 185 175 176 160 159 156 151 151 158 164 165 167 168 169 174
352 352 352 354 353 352 352 350 351 350 350 350 348 346 341 336 330 325 328 328 334 338 327 321 279 145 102 264 264 324 359 326 298 322 340 126 170 171 170 191 193 197 203 202 207 208 212 216 214 221 221 235 245 240 242 234 238 249 255 268 252 241 239 234 236 227 228 226 209 230 214 185 216 186 173 175 166 164 162 155 158 168 166 166 170 169 171 174
351 351 352 353 352 352 352 352 354 354 354 354 352 350 347 345 337 337 339 344 3 353 354 7 158 143 251 264 257 338 331 301 283 292 161 176 182 186 194 198 197 202 206 209 211 210 216 217 219 225 226 237 240 246 310 242 233 241 242 253 254 244 233 224 226 224 223 224 208 218 233 193 191 204 174 151 169 167 166 169 169 171 167 170 171 169 174 175
348 350 351 352 352 351 351 353 355 356 356 355 355 353 355 358 349 353 352 20 30 12 47 92 134 149 267 266 78 346 356 11 257 227 197 211 189 194 204 205 201 203 210 219 219 214 216 218 224 231 232 237 251 306 312 241 225 230 234 235 243 246 239 219 211 217 215 202 209 219 232 210 198 217 176 151 177 175 177 184 179 175 170 173 172 170 175 176
345 348 348 350 351 350 350 351 354 356 356 356 357 357 360 10 7 10 12 62 39 31 78 97 86 182 258 228 100 0 20 38 251 250 245 214 199 202 200 204 200 198 209 220 222 218 213 216 222 231 231 230 249 281 255 233 219 218 227 224 228 234 244 228 202 208 213 190 202 216 231 207 217 248 199 170 186 189 185 188 187 181 173 173 174 172 176 177
343 346 346 349 349 349 349 349 352 354 355 356 358 2 5 18 23 25 31 65 41 35 58 47 354 292 274 278 86 9 23 10 306 276 243 208 210 212 193 194 191 193 203 208 215 216 209 213 220 227 230 225 233 248 238 229 216 213 223 225 224 220 234 236 201 198 207 200 197 203 215 187 188 225 203 180 189 193 184 190 200 189 176 174 174 174 177 178
340 345 346 346 346 348 345 345 350 350 356 359 1 8 8 19 28 36 51 54 30 352 28 19 304 267 278 354 360 340 359 338 329 282 226 208 215 207 185 186 187 189 192 198 206 203 202 207 214 221 226 226 218 221 234 228 214 207 214 228 229 222 226 229 202 186 198 212 202 201 213 198 194 203 189 185 193 193 182 190 206 195 178 176 176 176 177 179
338 343 345 344 343 343 340 342 346 347 355 2 10 15 16 21 12 29 48 29 354 267 253 58 264 243 255 37 4 340 342 336 342 254 229 209 212 202 188 186 183 184 187 196 199 195 196 199 208 216 216 222 217 210 221 221 218 214 207 220 231 227 226 225 217 186 194 213 209 211 213 194 197 178 172 209 203 194 188 195 205 195 181 177 176 180 179 181
336 340 343 342 341 339 337 337 341 348 353 4 22 11 8 348 313 21 32 308 293 280 257 77 286 269 20 38 7 341 324 318 301 266 235 204 202 191 188 188 182 183 188 192 192 193 194 194 206 216 211 211 214 213 220 227 232 235 223 220 226 228 227 225 230 199 188 207 216 217 213 199 200 169 163 206 207 199 197 206 206 186 180 182 177 183 184 184
335 337 340 341 340 337 334 332 336 349 355 14 22 357 342 334 280 75 11 261 250 329 340 22 342 319 352 7 353 337 306 286 296 293 204 190 186 186 187 190 186 187 197 194 185 191 194 201 207 212 215 210 213 219 228 238 251 265 254 238 226 230 232 220 230 220 186 196 222 218 217 212 202 173 168 189 202 202 196 217 220 185 175 183 179 187 190 187
335 335 337 340 340 336 332 331 333 348 2 25 23 4 356 355 327 347 344 280 222 305 294 360 340 327 353 347 349 348 322 265 75 65 172 184 183 189 183 190 194 192 204 202 186 188 197 215 214 211 220 218 216 220 228 240 248 254 258 259 238 228 237 222 223 230 197 190 227 220 225 222 202 197 187 180 189 204 197 206 214 188 174 180 179 187 195 189
334 332 335 338 338 337 332 330 333 351 9 25 18 16 22 358 340 334 320 279 227 227 241 285 282 335 6 337 353 346 295 248 134 93 153 199 207 203 181 192 210 200 201 205 190 188 203 223 221 213 218 225 225 220 222 234 241 242 240 253 253 231 240 234 226 237 214 193 227 218 227 232 215 215 201 175 175 209 214 205 202 185 169 178 181 183 193 190
331 330 332 336 338 339 332 326 341 6 17 20 10 12 3 344 333 318 294 280 257 205 211 229 226 348 1 347 7 319 289 267 178 99 137 237 232 220 210 206 217 213 204 206 200 199 208 218 221 219 215 221 229 222 220 227 232 239 234 235 245 233 238 236 221 238 232 216 234 226 226 229 223 222 205 181 180 205 218 210 216 198 167 170 183 184 189 188
330 328 330 333 336 339 333 328 4 11 3 357 19 14 347 334 331 309 275 275 259 187 187 214 210 345 5 358 319 303 300 281 299 49 141 265 258 224 236 229 221 223 214 211 213 216 220 216 214 219 219 217 224 220 218 226 223 229 234 235 243 238 237 242 232 234 231 224 238 245 242 226 219 225 211 191 191 204 206 201 219 207 166 166 182 186 189 187
330 327 328 331 335 344 348 4 42 354 313 272 358 359 340 332 326 301 270 267 246 171 168 181 199 232 360 336 303 304 287 220 253 5 149 278 292 263 249 242 229 229 218 212 220 225 225 225 211 212 217 215 222 221 214 225 229 224 227 230 244 253 247 244 249 245 229 221 220 226 245 236 212 222 221 202 198 201 194 196 212 200 172 176 184 186 189 188
328 325 327 328 333 348 21 82 340 321 304 264 341 337 331 328 313 285 270 259 210 154 161 168 184 156 81 326 330 307 258 188 160 288 258 272 272 270 266 244 224 236 236 216 219 233 228 228 213 206 219 214 218 225 211 216 235 233 221 220 233 251 256 248 244 240 235 238 221 210 229 247 218 216 219 213 210 201 186 191 213 205 183 182 188 189 189 188
327 323 325 328 334 349 353 281 291 310 310 313 337 329 324 320 302 232 251 252 195 146 153 143 126 86 51 337 313 290 277 43 194 204 257 295 253 251 259 245 222 234 252 237 223 224 222 229 213 196 221 221 214 223 211 211 230 241 229 223 223 231 244 250 248 242 242 257 246 220 219 238 238 221 213 210 214 212 196 192 204 198 182 184 191 189 187 189
327 324 327 330 333 345 345 305 304 320 320 316 322 321 319 317 289 197 248 259 130 123 124 106 118 25 339 310 301 301 334 337 256 169 170 274 249 243 245 252 259 252 245 241 236 213 205 226 225 202 213 224 215 218 219 219 228 240 241 242 235 229 233 239 244 247 246 251 252 233 221 228 242 232 220 214 212 214 208 202 203 192 183 191 193 182 184 193
330 328 331 331 338 354 353 347 325 310 318 311 307 318 321 311 235 220 255 266 119 125 91 88 159 210 292 254 237 318 325 301 290 12 290 244 231 248 258 273 287 282 262 251 249 236 207 214 227 220 209 219 224 221 220 223 226 235 243 249 259 255 243 234 238 243 244 245 244 237 231 234 237 224 226 228 219 214 209 206 205 196 192 196 190 180 189 198
332 332 332 332 350 2 331 325 293 298 316 303 299 321 312 261 228 234 235 226 114 113 80 37 163 298 292 247 170 356 305 297 318 308 249 224 213 241 260 273 274 277 269 256 250 256 250 222 219 229 223 216 228 230 223 225 230 231 237 241 241 246 245 238 236 237 241 243 239 237 237 242 243 220 217 230 232 223 212 208 204 199 197 189 179 183 195 198
334 333 333 332 349 351 311 295 266 290 300 287 300 314 277 230 239 251 238 146 106 124 143 71 35 259 290 277 151 51 257 182 332 291 239 204 203 218 234 231 233 245 249 246 238 244 252 241 216 226 237 228 226 233 224 216 226 230 230 232 229 226 230 234 227 225 236 238 234 233 235 241 244 229 215 223 230 224 216 216 203 198 202 185 174 190 199 194
336 333 335 339 344 345 320 292 289 293 285 265 287 284 251 228 233 243 162 157 182 117 114 73 49 14 319 277 292 3 278 189 357 291 277 267 220 197 268 282 257 245 233 230 224 217 231 240 224 210 228 231 224 225 220 208 212 222 224 223 225 219 214 221 217 216 230 234 232 229 229 236 243 240 235 231 228 215 210 221 206 198 207 191 177 189 197 191
338 333 327 331 339 343 326 301 303 309 299 254 266 258 244 250 242 262 50 101 54 53 76 68 41 3 309 256 184 13 266 274 353 284 247 270 256 170 218 342 335 290 269 270 249 217 208 222 223 215 208 214 218 217 214 207 202 212 216 212 218 219 212 216 215 220 232 229 225 226 227 234 240 239 235 236 243 228 212 214 213 210 209 195 182 186 196 195
336 331 322 336 348 349 338 319 311 310 294 250 250 237 233 248 227 57 46 69 62 73 97 29 290 259 284 301 28 354 258 154 18 281 231 228 235 198 159 62 360 307 292 293 270 241 230 215 211 216 200 189 208 223 228 222 209 210 218 220 221 224 224 223 215 218 232 231 217 215 221 233 233 230 227 227 231 238 231 210 207 220 216 198 191 193 201 197
339 341 343 351 349 340 325 307 299 296 262 231 236 230 235 255 42 54 48 61 57 95 122 221 272 245 199 126 67 355 315 74 72 273 250 238 253 226 106 42 18 342 307 284 284 266 256 243 156 201 214 198 203 215 229 240 230 204 208 221 224 224 233 245 249 237 235 240 223 209 214 229 235 236 233 227 218 220 233 222 198 217 220 203 196 196 201 196
347 345 331 334 331 321 308 292 294 285 232 228 237 237 222 43 32 29 28 11 352 344 305 228 243 248 200 147 139 117 38 311 312 286 227 201 346 28 42 28 7 350 341 306 302 300 259 248 96 140 228 222 211 209 218 231 242 214 205 218 222 226 236 247 260 256 244 240 228 213 216 215 223 227 209 222 222 211 218 222 204 213 218 206 198 197 198 199
352 334 280 316 329 324 313 287 287 248 234 243 249 293 24 52 28 19 23 346 341 337 298 264 197 267 269 236 159 109 16 277 256 273 234 160 148 65 62 62 22 348 349 330 301 334 316 281 292 266 236 226 225 260 250 231 235 236 215 209 210 222 238 245 251 250 242 239 231 228 230 214 206 215 190 198 218 214 211 215 211 212 216 210 202 200 199 201
354 280 241 340 343 329 305 272 270 239 243 251 227 34 21 45 36 27 25 345 314 271 283 285 48 337 293 292 320 75 340 300 58 302 273 195 138 66 11 56 47 8 344 326 295 320 327 291 266 239 242 234 220 258 271 238 232 251 261 246 225 218 222 226 238 239 233 235 231 231 238 230 212 212 199 197 205 212 212 211 212 212 211 210 208 204 203 204
340 261 241 11 350 323 263 227 254 246 246 257 218 100 55 59 51 28 12 345 306 286 305 329 23 240 220 312 335 26 8 311 346 326 281 290 107 74 39 8 4 1 346 321 298 308 311 284 271 240 231 240 218 210 236 233 231 252 266 267 257 242 226 217 223 234 236 236 231 225 228 231 226 219 215 205 196 205 212 207 212 214 209 209 211 210 206 203
311 267 27 23 358 7 115 240 247 248 244 334 28 88 79 75 69 43 14 348 311 303 337 349 10 277 288 22 297 276 16 327 311 294 293 352 125 123 82 38 338 337 336 306 280 289 281 264 276 258 219 232 236 218 229 233 224 229 239 244 242 243 253 241 223 220 232 237 235 233 226 222 222 214 215 215 184 196 210 207 208 216 216 213 212 214 209 201
305 269 23 15 3 94 288 262 250 258 218 67 55 70 55 31 51 55 42 355 323 32 351 322 320 309 315 325 290 302 326 281 276 272 260 246 227 199 73 43 355 336 322 283 256 269 272 260 269 262 235 225 225 219 228 238 241 238 235 236 231 224 236 244 227 215 220 232 237 243 243 237 218 191 203 217 202 184 197 203 206 215 222 221 211 209 209 201
311 301 8 357 341 298 291 274 53 336 20 70 68 74 58 322 14 28 31 349 333 87 343 288 315 325 304 307 322 336 295 276 281 278 269 266 292 50 68 48 354 327 311 284 280 335 341 293 277 263 260 262 258 251 253 265 273 270 255 246 240 229 222 227 231 222 217 223 227 232 244 249 114 109 179 216 208 187 186 195 209 213 217 223 216 208 206 203
353 38 17 357 339 305 286 135 83 7 60 78 76 68 40 328 360 18 14 349 337 107 279 290 30 345 316 328 321 310 305 298 280 269 279 284 333 54 46 29 0 311 287 278 286 1 41 257 262 264 268 277 280 279 279 277 271 261 251 249 249 238 227 225 233 239 232 228 226 221 230 231 146 121 149 197 192 197 194 190 208 218 211 214 217 210 204 202
7 24 24 17 353 312 277 117 93 101 94 117 136 95 71 30 5 359 27 12 338 334 321 324 12 359 310 319 306 298 306 303 274 268 285 286 8 47 4 358 358 293 286 331 340 359 343 244 243 254 254 249 251 255 255 249 242 242 241 238 242 245 239 231 230 237 242 248 250 238 222 217 177 130 118 126 199 234 213 184 189 219 225 211 213 212 200 196
290 282 50 43 21 19 24 18 57 115 95 97 100 86 102 88 36 345 352 16 339 327 338 344 325 302 300 300 291 291 289 286 284 285 288 281 300 23 309 327 318 274 302 19 350 320 303 275 261 254 245 234 224 224 252 255 249 250 242 234 236 240 237 235 236 234 230 242 255 255 240 225 208 175 146 158 223 264 262 198 119 122 227 207 10 267 201 193
303 327 65 62 51 58 48 25 44 105 103 96 82 38 25 82 97 27 335 5 18 321 320 10 306 286 286 291 288 286 280 275 277 279 283 279 275 282 284 286 269 262 298 357 324 293 281 274 269 264 258 259 272 311 323 311 301 280 257 247 246 239 231 236 251 240 233 238 241 242 253 251 234 217 191 167 171 307 325 34 45 47 42 40 29 13 3 190
345 13 17 29 52 67 64 48 52 63 49 49 86 41 20 8 83 79 352 353 10 327 322 15 332 298 306 311 296 285 278 267 259 259 265 268 267 266 259 251 255 260 273 290 275 262 270 262 255 257 259 266 282 295 298 293 287 285 280 275 277 261 234 226 238 244 241 240 232 227 233 239 243 240 200 117 70 38 34 33 41 52 43 33 25 11 356 359
28 50 35 1 342 42 56 55 61 67 62 63 78 68 33 19 30 49 35 322 332 345 348 102 290 304 324 323 303 298 304 289 270 269 277 284 288 281 258 245 249 249 246 249 244 238 253 258 254 257 255 254 264 273 280 282 276 277 278 274 281 277 244 225 233 248 248 244 243 235 229 230 231 218 73 36 11 21 16 6 29 58 46 30 18 4 343 317
44 64 55 22 12 62 55 50 69 81 69 50 72 67 31 33 41 21 353 301 261 39 355 302 318 322 317 317 303 303 320 308 295 302 305 298 294 292 282 266 256 242 232 238 246 245 249 257 260 264 260 254 255 262 273 278 273 269 268 262 264 267 251 236 242 249 248 253 258 251 241 242 245 237 43 354 304 322 351 345 10 35 33 25 12 1 1 3
48 58 57 64 82 71 55 59 66 83 81 19 35 65 34 19 32 8 342 329 321 84 354 304 317 318 311 315 296 283 298 301 293 298 297 289 287 283 277 281 287 269 245 233 239 243 243 253 260 265 263 255 253 255 261 266 265 263 261 256 254 251 243 243 253 255 251 255 257 251 246 249 255 256 337 332 299 299 324 335 358 13 13 6 351 347 355 357
55 64 36 40 73 34 6 60 65 70 82 53 24 40 22 30 29 344 329 41 329 314 327 311 310 312 306 298 283 281 295 294 286 285 280 273 274 270 265 272 286 282 263 248 238 229 231 251 258 259 260 255 249 248 252 260 261 258 254 249 246 243 238 241 249 251 251 254 251 243 239 243 254 265 311 318 301 300 325 342 348 350 349 339 328 326 332 334
59 66 11 328 53 2 331 53 64 340 60 40 18 27 3 14 21 338 325 112 262 285 303 301 299 303 300 291 290 300 304 297 290 289 285 279 274 268 263 261 259 258 260 260 256 240 235 250 256 250 253 256 252 247 248 255 254 247 246 246 243 240 239 242 246 245 247 251 249 240 234 241 262 305 337 319 310 327 348 349 343 339 335 327 321 321 322 325